Location: Baix
(44.7118°N, 4.7648°E)
Time: 15:57:32
(UTC+00:00)

A-11 Canister half - Pass Details

Date: 28 November 2020
Orbit: 1517 x 1683 km, 47.2° (Epoch: 15 January)

Event Time Altitude Azimuth Distance (km) Brightness Sun altitude
Rises 19:08:58 0° 292° (WNW) 4,939 12.6 -32.5°
Reaches altitude 10° 19:12:55 10° 280° (W) 3,949 12.0 -33.2°
Maximum altitude 19:20:25 24° 232° (SW) 2,947 10.8 -34.5°
Drops below altitude 10° 19:27:53 10° 183° (S) 3,895 11.1 -35.8°
Sets 19:31:46 0° 170° (S) 4,858 11.5 -36.5°
